Main page
METAR-TAF:

METAR-TAF

Airports :

General Ulpiano Paez Airport

Salinas, Ecuador

latitude: 02-12-18S, longitude: 080-59-20W, elevation: 5 m

Current weather observation

The report was made 31 minutes ago, at 22:00 UTC
Wind 10 kt from the Southwest
Temperature 23°C
Humidity 78%
Pressure 1010 hPa
Visibility 10 km or more
Scattered clouds at a height of 1200 ft
Broken clouds at a height of 8000 ft

METAR: SESA 052200Z 23010KT 9999 SCT012 BKN080 23/19 Q1010 RMK A2984

Time: 17:31 (22:31 UTC)


TAF: missing

Weather observations and forecasts of more than 4000 airports (METAR and TAF reports).

The available stations are represented by yellow and red dots on the map.

Hover mouse over dot to see the name of the station.

Then click to see weather observations and forecasts.

To change the map : click on the green buttons with a black cross to zoom in, on the green button with a dash to zoom out, or on the green arrows for adjacent maps.


METAR-TAF: